EW2664 Weather Reports


Display with metric or nautical units.
time (UTC)temp
F
wind
direction
speed
MPH
gust
MPH
rain 1hr
in
rain 24hr
in
rain mn
in
humidity
%
barometer
mb
20260906221519 83 156 0.0 2.0 0.00 0.08 0.00 79 1010.7
20260906220024 82 192 0.0 2.0 0.00 0.08 0.00 81 1010.8
20260906214538 81 175 0.0 2.0 0.00 0.08 0.00 81 1010.8
20260906213030 81 105 0.0 3.0 0.00 0.08 0.00 81 1011.3
20260906211514 81 95 0.0 2.0 0.00 0.08 0.00 83 1011.6
20260906210034 80 106 0.0 0.0 0.00 0.08 0.00 84 1011.8
20260906204527 80 112 0.0 0.0 0.00 0.08 0.00 84 1012.2
20260906203008 79 100 0.0 2.0 0.00 0.08 0.00 83 1012.4
20260906201510 79 100 1.0 3.0 0.00 0.08 0.00 83 1012.4
20260906200019 78 107 2.0 9.0 0.00 0.08 0.00 83 1012.7
20260906194526 80 111 1.0 7.0 0.00 0.08 0.00 83 1013.0
20260906193004 81 69 1.0 5.0 0.00 0.08 0.00 81 1013.3
20260906191512 81 59 1.0 2.0 0.00 0.08 0.00 82 1013.5
20260906190022 81 295 1.0 2.0 0.00 0.08 0.00 83 1013.3
20260906184523 80 242 0.0 3.0 0.00 0.08 0.00 79 1013.4
20260906183034 83 232 2.0 4.0 0.00 0.08 0.00 78 1013.5
20260906181521 90 238 3.0 9.0 0.00 0.08 0.00 63 1013.1
20260906180012 94 235 1.0 3.0 0.00 0.08 0.00 60 1013.2
20260906174517 93 261 1.0 5.0 0.00 0.08 0.00 60 1013.1
20260906173025 92 346 1.0 3.0 0.00 0.08 0.00 60 1013.0
20260906171533 92 59 1.0 3.0 0.00 0.08 0.00 62 1013.1
20260906170012 92 15 1.0 3.0 0.00 0.08 0.00 63 1013.1
20260906164516 91 237 1.0 3.0 0.00 0.08 0.00 64 1013.3
20260906163027 90 272 1.0 3.0 0.00 0.08 0.00 65 1013.5
20260906161532 90 256 1.0 2.0 0.00 0.08 0.00 69 1013.5
20260906160027 90 13 0.0 2.0 0.00 0.08 0.00 66 1013.8
20260906154523 90 360 0.0 3.0 0.00 0.08 0.00 70 1014.2
20260906153039 89 263 1.0 2.0 0.00 0.08 0.00 71 1014.3
20260906151528 87 290 1.0 3.0 0.00 0.08 0.00 72 1014.4
20260906150031 86 268 0.0 3.0 0.00 0.08 0.00 74 1014.3
20260906144515 86 321 1.0 2.0 0.00 0.08 0.00 74 1014.4
20260906143023 87 269 0.0 3.0 0.00 0.08 0.00 73 1014.5
20260906141525 86 258 0.0 0.0 0.00 0.08 0.00 73 1014.3
20260906140042 85 265 0.0 0.0 0.00 0.08 0.00 75 1014.2
20260906134531 84 351 0.0 0.0 0.00 0.08 0.00 79 1014.4
20260906133016 83 51 0.0 0.0 0.00 0.08 0.00 81 1014.3
20260906131523 81 30 0.0 0.0 0.00 0.08 0.00 84 1014.1
20260906130040 80 40 0.0 0.0 0.00 0.08 0.00 85 1014.2
20260906124531 80 9 0.0 2.0 0.00 0.08 0.00 86 1014.0
20260906123016 79 55 0.0 0.0 0.00 0.08 0.00 87 1014.0
20260906121523 79 55 0.0 0.0 0.00 0.08 0.00 88 1013.8
20260906120028 78 55 0.0 0.0 0.00 0.08 0.00 91 1013.8
20260906114535 77 55 0.0 0.0 0.00 0.08 0.00 91 1013.6
20260906113042 77 56 0.0 0.0 0.00 0.08 0.00 92 1013.4
20260906111523 77 50 0.0 0.0 0.00 0.08 0.00 92 1013.0
20260906110027 77 46 0.0 0.0 0.00 0.08 0.00 92 1012.5
20260906104530 77 46 0.0 0.0 0.00 0.08 0.00 92 1012.3
20260906103031 76 46 0.0 0.0 0.00 0.08 0.00 91 1012.2
20260906101534 77 46 0.0 0.0 0.00 0.08 0.00 91 1012.0
20260906100023 77 46 0.0 0.0 0.00 0.08 0.00 91 1011.8
20260906094534 77 46 0.0 0.0 0.00 0.08 0.00 91 1011.5
20260906093033 77 46 0.0 0.0 0.00 0.08 0.00 91 1011.7
20260906091534 77 46 0.0 0.0 0.00 0.08 0.00 91 1011.7
20260906090023 77 28 0.0 0.0 0.00 0.08 0.00 91 1011.7
20260906084513 77 36 0.0 2.0 0.00 0.08 0.00 91 1011.7
20260906083019 77 53 0.0 0.0 0.00 0.08 0.00 90 1011.5
20260906081530 77 90 0.0 0.0 0.00 0.08 0.00 90 1011.4
20260906080018 77 92 0.0 2.0 0.00 0.08 0.00 91 1011.7
20260906074526 77 59 0.0 0.0 0.00 0.08 0.00 90 1011.8
20260906073007 77 30 0.0 0.0 0.00 0.08 0.00 90 1011.9
20260906071512 77 30 0.0 0.0 0.00 0.08 0.00 90 1012.0
20260906070016 77 30 0.0 0.0 0.00 0.08 0.00 90 1012.1
20260906064533 77 30 0.0 0.0 0.00 0.08 0.00 90 1012.3
20260906063028 77 30 0.0 0.0 0.00 0.08 0.00 90 1012.7
20260906061509 77 30 0.0 0.0 0.00 0.08 0.00 90 1012.9
20260906060015 77 23 0.0 0.0 0.00 0.08 0.00 90 1013.1
20260906054524 77 22 0.0 2.0 0.00 0.08 0.00 90 1013.6
20260906053035 77 290 0.0 2.0 0.00 0.08 0.00 90 1013.3
20260906051509 78 262 1.0 4.0 0.00 0.08 0.00 91 1013.2
20260906050033 78 101 0.0 0.0 0.00 0.08 0.00 90 1012.8
20260906044518 78 101 0.0 2.0 0.00 0.08 0.00 91 1012.8
20260906043027 78 54 1.0 2.0 0.00 0.08 0.00 91 1012.9
20260906041531 77 298 0.0 1.0 0.00 0.08 0.00 91 1012.8
20260906040011 77 298 0.0 2.0 0.00 0.08 0.00 90 1013.2
20260906034523 77 281 0.0 2.0 0.00 0.08 0.08 90 1013.7
20260906033025 77 270 0.0 2.0 0.00 0.08 0.08 90 1014.0
20260906031529 78 282 1.0 2.0 0.00 0.08 0.08 91 1014.3
20260906030029 78 206 0.0 3.0 0.00 0.08 0.08 91 1014.7
20260906024514 78 242 0.0 1.0 0.00 0.08 0.08 91 1015.1
20260906023024 78 225 0.0 0.0 0.00 0.08 0.08 91 1015.3
20260906021527 78 313 0.0 0.0 0.00 0.08 0.08 91 1015.4
20260906020031 78 342 0.0 0.0 0.00 0.08 0.08 91 1015.4
20260906014511 77 32 0.0 0.0 0.00 0.08 0.08 91 1015.4
20260906013009 77 32 0.0 0.0 0.01 0.08 0.08 90 1015.0
20260906011506 77 66 0.0 0.0 0.02 0.08 0.08 90 1014.5
20260906010007 77 66 0.0 0.0 0.03 0.08 0.08 89 1014.2
20260906004503 77 107 0.0 2.0 0.05 0.08 0.08 89 1013.8
20260906003005 77 85 0.0 0.0 0.06 0.07 0.07 88 1013.9
20260906001504 77 23 0.0 0.0 0.06 0.06 0.06 87 1014.1
20260906000006 78 56 0.0 0.0 0.05 0.05 0.05 85 1013.7
20260905234506 78 42 0.0 2.0 0.03 0.03 0.03 84 1013.8
20260905233020 79 53 2.0 4.0 0.01 0.01 0.01 80 1014.1
20260905231505 81 68 1.0 4.0 0.00 0.00 0.00 76 1013.9
20260905230008 81 53 1.0 6.0 0.00 0.00 0.00 75 1014.0
20260905224508 82 74 1.0 5.0 0.00 0.00 0.00 74 1014.0
20260905223008 82 109 0.0 5.0 0.00 0.00 0.00 74 1014.4